Weather History for Amberley Military, Queensland

Change the Weather History Date:

Wednesday, October 16, 2013

  Actual Average Record
Temperature  
Mean Temperature 68 °F -  
Max Temperature 82 °F - - ()
Min Temperature 53 °F - - ()
Cooling Degree Days 2    
Growing Degree Days 18 (Base 50)    
Moisture  
Dew Point 54 °F    
Average Humidity 66    
Maximum Humidity 100    
Minimum Humidity 30    
Precipitation  
Precipitation 0.00 in - - ()
Sea Level Pressure  
Sea Level Pressure 30.13 in    
Wind  
Wind Speed 5 mph ()    
Max Wind Speed 21 mph    
Max Gust Speed -    
Visibility 6.1 miles    
Events Fog    
T = Trace of Precipitation, MM = Missing Value Source: Averaged Metar Reports

Daily Weather History Graph

Daily Weather History Graph

Search for Another Location

Airport:

Trip Planner

Search our weather history database for the weather conditions in past years. The results will help you decide how hot, cold, wet, or windy it might be!

Date:

Astronomy

Oct. 16, 2013 Rise Set
Actual Time 5:12 AM AEST 5:57 PM AEST
Civil Twilight 4:48 AM AEST 6:21 PM AEST
Nautical Twilight 4:20 AM AEST 6:49 PM AEST
Astronomical Twilight 3:52 AM AEST 7:18 PM AEST
Moon 3:20 PM AEST (10/16) 3:02 AM AEST (10/16)
Length of Visible Light 13h 32m
Length of Day
12h 45m
Waxing Gibbous, 90% of the Moon is Illuminated
Oct 16
Waxing Gibbous
Oct 19
Full
Oct 27
Last Quarter
Nov 3
New
Nov 10
First Quarter

Hourly Weather History & Observations

Time (AEST) Temp. Heat Index Dew Point Humidity Pressure Visibility Wind Dir Wind Speed Gust Speed Precip Events Conditions
12:00 AM 60.8 °F - 57.2 °F 88% 30.15 in 6.2 mi NW 4.6 mph - N/A   Mostly Cloudy
12:30 AM 60.8 °F - 55.4 °F 82% 30.15 in 6.2 mi Calm Calm - N/A   Scattered Clouds
1:00 AM 59.0 °F - 55.4 °F 88% 30.15 in 6.2 mi Calm Calm - N/A   Unknown
1:30 AM 57.2 °F - 55.4 °F 94% 30.15 in 6.2 mi NNW 2.3 mph - N/A   Unknown
2:00 AM 55.4 °F - 53.6 °F 94% 30.15 in 6.2 mi Calm Calm - N/A   Unknown
2:30 AM 55.4 °F - 53.6 °F 94% 30.12 in 6.2 mi NNW 4.6 mph - N/A   Unknown
3:00 AM 55.4 °F - 53.6 °F 94% 30.12 in 6.2 mi North 1.2 mph - N/A   Unknown
3:30 AM 55.4 °F - 53.6 °F 94% 30.12 in 6.2 mi Calm Calm - N/A   Unknown
4:00 AM 53.6 °F - 53.6 °F 100% 30.12 in 6.2 mi North 1.2 mph - N/A   Unknown
4:18 AM 53.6 °F - 51.8 °F 94% 30.15 in 3.7 mi Calm Calm - N/A   Unknown
4:30 AM 53.6 °F - 51.8 °F 94% 30.15 in 6.2 mi Calm Calm - N/A   Unknown
5:00 AM 53.6 °F - 53.6 °F 100% 30.15 in 6.2 mi Calm Calm - N/A   Mostly Cloudy
5:30 AM 55.4 °F - 53.6 °F 94% 30.18 in 6.2 mi WNW 3.5 mph - N/A   Scattered Clouds
6:00 AM 55.4 °F - 55.4 °F 100% 30.18 in 6.2 mi Calm Calm - N/A Fog Scattered Clouds
6:30 AM 59.0 °F - 57.2 °F 94% 30.18 in - Calm Calm - N/A   Clear
7:00 AM 62.6 °F - 57.2 °F 82% 30.21 in 6.2 mi WSW 2.3 mph - N/A   Scattered Clouds
7:30 AM 66.2 °F - 57.2 °F 73% 30.21 in 6.2 mi SW 3.5 mph - N/A   Scattered Clouds
8:00 AM 69.8 °F - 57.2 °F 64% 30.21 in 6.2 mi WSW 4.6 mph - N/A   Scattered Clouds
8:30 AM 71.6 °F - 57.2 °F 60% 30.21 in 6.2 mi WNW 6.9 mph - N/A   Scattered Clouds
9:00 AM 73.4 °F - 55.4 °F 53% 30.21 in 6.2 mi North 4.6 mph - N/A   Scattered Clouds
9:30 AM 75.2 °F - 53.6 °F 47% 30.21 in 6.2 mi NW 6.9 mph - N/A   Scattered Clouds
10:00 AM 77.0 °F - 53.6 °F 44% 30.21 in 6.2 mi NW 8.1 mph - N/A   Scattered Clouds
10:30 AM 77.0 °F - 51.8 °F 41% 30.18 in 6.2 mi NNW 8.1 mph - N/A   Scattered Clouds
11:00 AM 77.0 °F - 51.8 °F 41% 30.18 in - SE 3.5 mph - N/A   Clear
11:30 AM 78.8 °F - 51.8 °F 39% 30.15 in - NW 8.1 mph - N/A   Clear
12:00 PM 80.6 °F - 51.8 °F 37% 30.12 in - WNW 6.9 mph - N/A   Clear
12:30 PM 78.8 °F - 50.0 °F 36% 30.12 in 6.2 mi ESE 5.8 mph - N/A   Unknown
1:00 PM 80.6 °F - 50.0 °F 34% 30.09 in - SSW 5.8 mph - N/A   Clear
1:30 PM 80.6 °F - 51.8 °F 37% 30.09 in - ENE 8.1 mph - N/A   Clear
2:00 PM 82.4 °F - 48.2 °F 30% 30.06 in - East 10.4 mph - N/A   Clear
2:30 PM 80.6 °F 80.5 °F 55.4 °F 42% 30.06 in - NNE 15.0 mph - N/A   Clear
3:00 PM 80.6 °F 80.5 °F 55.4 °F 42% 30.04 in - ENE 17.3 mph - N/A   Clear
3:30 PM 82.4 °F 81.4 °F 53.6 °F 37% 30.04 in - ENE 16.1 mph - N/A   Clear
4:00 PM 78.8 °F - 53.6 °F 42% 30.04 in - ENE 17.3 mph - N/A   Clear
4:30 PM 78.8 °F - 53.6 °F 42% 30.04 in - ENE 20.7 mph - N/A   Clear
5:00 PM 75.2 °F - 53.6 °F 47% 30.06 in - NE 17.3 mph - N/A   Clear
5:30 PM 73.4 °F - 51.8 °F 47% 30.06 in - ENE 17.3 mph - N/A   Clear
6:00 PM 73.4 °F - 51.8 °F 47% 30.06 in - ENE 12.7 mph - N/A   Clear
6:30 PM 71.6 °F - 51.8 °F 50% 30.09 in - ENE 16.1 mph - N/A   Clear
7:00 PM 69.8 °F - 53.6 °F 56% 30.09 in - NE 13.8 mph - N/A   Clear
7:30 PM 69.8 °F - 55.4 °F 60% 30.09 in - NE 11.5 mph - N/A   Clear
8:00 PM 68.0 °F - 55.4 °F 64% 30.12 in 6.2 mi NE 9.2 mph - N/A   Unknown
8:30 PM 68.0 °F - 57.2 °F 68% 30.12 in 6.2 mi North 4.6 mph - N/A   Unknown
9:00 PM 66.2 °F - 57.2 °F 73% 30.12 in 6.2 mi ENE 4.6 mph - N/A   Unknown
9:30 PM 66.2 °F - 57.2 °F 73% 30.12 in 6.2 mi NE 4.6 mph - N/A   Unknown
10:00 PM 64.4 °F - 57.2 °F 77% 30.12 in 6.2 mi ENE 4.6 mph - N/A   Unknown
10:30 PM 59.0 °F - 55.4 °F 88% 30.12 in 6.2 mi ENE 4.6 mph - N/A   Unknown
11:00 PM 59.0 °F - 55.4 °F 88% 30.12 in 6.2 mi NNW 3.5 mph - N/A   Unknown
11:30 PM 59.0 °F - 55.4 °F 88% 30.12 in 6.2 mi NW 1.2 mph - N/A   Unknown